Pensacola, FL

3:41 AM CDT on June 24, 2017 (GMT -0500)
Pensacola Regional

Weather History for KPNS - January, 2014

Change the Weather History Date:

Monday, January 13, 2014

  Actual Average Record
Temperature  
Mean Temperature 56 °F 51 °F  
Max Temperature 63 °F 60 °F 78 °F (2000)
Min Temperature 48 °F 42 °F 15 °F (1981)
Degree Days  
Heating Degree Days 9 14  
Month to date heating degree days 221 182  
Since 1 July heating degree days 716 764  
Cooling Degree Days 0 0  
Month to date cooling degree days 0 0  
Year to date cooling degree days 0 0  
Growing Degree Days 5 (Base 50)    
Moisture  
Dew Point 54 °F    
Average Humidity 85    
Maximum Humidity 93    
Minimum Humidity 77    
Precipitation  
Precipitation 1.25 in 0.15 in 3.63 in (1932)
Month to date precipitation 2.70 1.80  
Year to date precipitation 2.70 1.80  
Snow  
Snow 0.00 in 0.00 in - ()
Month to date snowfall 0.0 0.0  
Since 1 July snowfall 0.0 0.0  
Snow Depth 0.00 in    
Sea Level Pressure  
Sea Level Pressure 29.99 in    
Wind  
Wind Speed 7 mph (ESE)    
Max Wind Speed 17 mph    
Max Gust Speed 22 mph    
Visibility 6 miles    
Events Rain , Thunderstorm    
T = Trace of Precipitation, MM = Missing Value Source: NWS Daily Summary

Daily Weather History Graph

Daily Weather History Graph

Search for Another Location

Airport or City:

Trip Planner

Search our weather history database for the weather conditions in past years. The results will help you decide how hot, cold, wet, or windy it might be!

Date:

Astronomy

Jan. 13, 2014 Rise Set
Actual Time 6:46 AM CST 5:08 PM CST
Civil Twilight 6:20 AM CST 5:34 PM CST
Nautical Twilight 5:50 AM CST 6:04 PM CST
Astronomical Twilight 5:21 AM CST 6:33 PM CST
Moon 3:22 PM CST (1/13) 4:36 AM CST (1/13)
Length of Visible Light 11h 14m
Length of Day
10h 22m
Waxing Gibbous, 95% of the Moon is Illuminated
Jan 13
Waxing Gibbous
Jan 15
Full
Jan 23
Last Quarter
Jan 30
New
Feb 6
First Quarter

Hourly Weather History & Observations

Time (CST) Temp. Dew Point Humidity Pressure Visibility Wind Dir Wind Speed Gust Speed Precip Events Conditions
12:53 AM 51.1 °F 45.0 °F 80% 30.14 in 10.0 mi Calm Calm - N/A   Clear
1:53 AM 48.9 °F 45.0 °F 86% 30.11 in 10.0 mi ENE 6.9 mph - N/A   Clear
2:53 AM 50.0 °F 44.1 °F 80% 30.10 in 10.0 mi Calm Calm - N/A   Clear
3:53 AM 53.1 °F 46.0 °F 77% 30.06 in 10.0 mi East 6.9 mph - N/A   Clear
4:53 AM 48.9 °F 45.0 °F 86% 30.08 in 10.0 mi Calm Calm - N/A   Clear
5:53 AM 51.1 °F 46.9 °F 86% 30.08 in 10.0 mi ENE 5.8 mph - N/A   Clear
6:53 AM 50.0 °F 46.9 °F 89% 30.08 in 10.0 mi Calm Calm - N/A   Clear
7:29 AM 51.1 °F 48.0 °F 89% 30.09 in 10.0 mi Calm Calm - N/A   Mostly Cloudy
7:53 AM 53.1 °F 48.0 °F 83% 30.11 in 10.0 mi NNE 4.6 mph - N/A   Mostly Cloudy
8:12 AM 54.0 °F 48.9 °F 83% 30.10 in 10.0 mi North 5.8 mph - N/A   Mostly Cloudy
8:53 AM 55.0 °F 48.9 °F 80% 30.11 in 10.0 mi NNE 3.5 mph - N/A   Mostly Cloudy
9:24 AM 57.9 °F 50.0 °F 75% 30.10 in 10.0 mi NNE 3.5 mph - N/A   Overcast
9:53 AM 57.9 °F 51.1 °F 78% 30.11 in 10.0 mi NNE 4.6 mph - N/A   Overcast
10:49 AM 57.2 °F 51.8 °F 82% 30.08 in 2.0 mi Calm Calm - 0.01 in Rain Rain
10:53 AM 57.0 °F 52.0 °F 83% 30.09 in 2.0 mi ESE 4.6 mph - 0.01 in Rain Heavy Rain
11:04 AM 57.0 °F 53.1 °F 87% 30.06 in 2.0 mi East 8.1 mph - 0.05 in Rain Light Rain
11:53 AM 57.9 °F 54.0 °F 87% 30.03 in 6.0 mi East 3.5 mph - 0.10 in   Overcast
12:53 PM 57.0 °F 54.0 °F 89% 29.95 in 5.0 mi East 9.2 mph - 0.07 in Rain Heavy Rain
1:29 PM 55.9 °F 54.0 °F 93% 29.94 in 9.0 mi East 6.9 mph - 0.05 in Rain , Thunderstorm Light Rain
1:53 PM 55.9 °F 54.0 °F 93% 29.97 in 7.0 mi SE 4.6 mph - 0.05 in Rain , Thunderstorm Light Rain
1:59 PM 55.9 °F 54.0 °F 93% 29.96 in 1.8 mi SE 8.1 mph - 0.03 in Rain , Thunderstorm Heavy Rain
2:10 PM 55.9 °F 54.0 °F 93% 29.95 in 2.0 mi ESE 6.9 mph - 0.12 in Rain , Thunderstorm Heavy Thunderstorms and Rain
2:19 PM 55.9 °F 54.0 °F 93% 29.96 in 3.0 mi SE 8.1 mph - 0.15 in Rain , Thunderstorm Rain
2:28 PM 55.9 °F 54.0 °F 93% 29.96 in 2.0 mi ESE 8.1 mph - 0.17 in Rain Heavy Rain
2:36 PM 55.9 °F 54.0 °F 93% 29.96 in 2.0 mi ESE 8.1 mph - 0.20 in Rain , Thunderstorm Rain
2:53 PM 55.9 °F 54.0 °F 93% 29.98 in 2.0 mi ESE 9.2 mph - 0.26 in Rain , Thunderstorm Rain
3:03 PM 55.9 °F 54.0 °F 93% 29.94 in 2.0 mi East 9.2 mph - 0.03 in Rain , Thunderstorm Thunderstorms and Rain
3:29 PM 57.0 °F 55.0 °F 93% 29.93 in 2.0 mi East 11.5 mph - 0.12 in Rain , Thunderstorm Rain
3:36 PM 57.0 °F 55.0 °F 93% 29.93 in 2.0 mi ESE 11.5 mph - 0.14 in Rain Rain
3:53 PM 57.0 °F 55.0 °F 93% 29.94 in 2.0 mi ESE 12.7 mph - 0.20 in Rain Heavy Rain
4:53 PM 57.9 °F 55.9 °F 93% 29.90 in 1.0 mi ESE 15.0 mph - 0.28 in Rain Rain
5:53 PM 57.9 °F 55.9 °F 93% 29.91 in 4.0 mi SE 12.7 mph - 0.12 in Rain Rain
6:53 PM 59.0 °F 57.0 °F 93% 29.92 in 4.0 mi SE 12.7 mph - 0.02 in   Overcast
7:53 PM 62.1 °F 59.0 °F 90% 29.92 in 8.0 mi SSE 9.2 mph - N/A   Overcast
8:10 PM 61.0 °F 59.0 °F 93% 29.92 in 7.0 mi SSE 6.9 mph - N/A   Overcast
8:35 PM 62.1 °F 60.1 °F 93% 29.92 in 7.0 mi South 9.2 mph - 0.00 in   Overcast
8:53 PM 62.1 °F 60.1 °F 93% 29.93 in 5.0 mi South 9.2 mph - 0.01 in Rain Light Rain
9:03 PM 61.0 °F 59.0 °F 93% 29.92 in 4.0 mi South 8.1 mph - 0.00 in Rain Light Rain
9:53 PM 62.1 °F 60.1 °F 93% 29.92 in 6.0 mi South 9.2 mph - 0.02 in Rain Light Rain
10:16 PM 62.1 °F 60.1 °F 93% 29.91 in 4.0 mi South 6.9 mph - 0.01 in Rain Light Rain
10:53 PM 62.1 °F 60.1 °F 93% 29.90 in 7.0 mi SW 5.8 mph - 0.06 in Rain Light Rain
11:29 PM 62.1 °F 60.1 °F 93% 29.88 in 2.0 mi WNW 3.5 mph - 0.04 in Rain Heavy Rain
11:34 PM 62.1 °F 61.0 °F 96% 29.88 in 3.0 mi Calm Calm - 0.05 in Rain Light Rain
11:42 PM 62.1 °F 60.1 °F 93% 29.87 in 7.0 mi Calm Calm - 0.05 in Rain Light Rain
11:53 PM 62.1 °F 60.1 °F 93% 29.88 in 10.0 mi WNW 4.6 mph - 0.05 in   Overcast